Home   Weather   Surgut   Past weeks

Flag for Russia Past Weather in Surgut, Russia — Yesterday and Last 2 Weeks

Now
43 °F

Partly sunny.


Feels Like: 35 °F
Forecast: 34 / 46 °F
Wind: 15 mph from Northwest

Location: Surgut Airport

Current Time: May 29, 2017 at 7:18:48 am

Latest Report: May 29, 2017 at 6:30 am


Visibility: 4 mi

Pressure: 29.39 "Hg

Humidity: 100%

Dew Point: 43 °F

Location of SurgutLocation

Past Weather in Surgut — Graph

°F

Surgut Temperature Yesterday

Maximum temperature yesterday: 68 °F (at 1:00 pm)
Minimum temperature yesterday: 54 °F (at 8:00 pm)
Average temperature yesterday: 60 °F

High & Low Weather Summary for the Past Weeks

 TemperatureHumidityPressure
High75 °F (May 27, 2:30 pm)100% (May 14, 1:30 pm)30.36 "Hg (May 14, 1:30 pm)
Low18 °F (May 16, 3:30 am)30% (May 17, 1:30 pm)29.27 "Hg (May 22, 12:30 pm)
Average42 °F70%29.83 "Hg
* Reported May 14 6:00 am — May 29 6:30 am, Surgut. Weather by CustomWeather, © 2017

Note: Actual official high and low records may vary slightly from our data, if they occured in-between our weather recording intervals... More about our weather records

Advertising

Surgut Weather History for the Previous 24 Hours

Scroll right to see more
 ConditionsComfort  
Time TempWeatherWind HumidityBarometerVisibility
6:30 am
Mon, May 29
43 °FPartly sunny.15 mph100%29.39 "Hg4 mi
5:30 am45 °FSprinkles. Partly sunny.15 mph100%29.39 "Hg4 mi
5:00 am48 °FLight rain. Mostly cloudy.17 mph100%29.36 "Hg4 mi
4:30 am52 °FLow clouds.6 mph100%29.33 "Hg4 mi
3:30 am52 °FPartly sunny.3 mph100%29.33 "Hg4 mi
2:30 am50 °FClear.8 mph100%29.33 "Hg4 mi
2:00 am50 °FClear.1 mph100%29.33 "Hg4 mi
1:30 am50 °FClear.No wind100%29.33 "Hg4 mi
12:30 am52 °FClear.No wind100%29.33 "Hg4 mi
12:00 am54 °FClear.No wind100%29.33 "Hg4 mi
11:30 pm
Sun, May 28
54 °FClear.3 mph100%29.33 "Hg4 mi
11:00 pm54 °FClear.3 mph94%29.33 "Hg4 mi
10:30 pm54 °FClear.3 mph100%29.33 "Hg4 mi
10:00 pm54 °FPassing clouds.3 mph100%29.36 "Hg4 mi
9:30 pm54 °FPassing clouds.6 mph100%29.36 "Hg4 mi
9:00 pm54 °FScattered clouds.10 mph100%29.36 "Hg4 mi
8:30 pm54 °FSprinkles. Scattered clouds.6 mph100%29.39 "Hg4 mi
8:00 pm54 °FSprinkles. Scattered clouds.3 mph100%29.42 "Hg4 mi
7:30 pm55 °FPassing clouds.3 mph100%29.42 "Hg4 mi
7:00 pm55 °FSprinkles. Scattered clouds.6 mph100%29.45 "Hg4 mi
6:30 pm57 °FSprinkles. Scattered clouds.8 mph88%29.45 "Hg4 mi
6:00 pm55 °FSprinkles. Scattered clouds.6 mph100%29.45 "Hg4 mi
5:30 pm57 °FSprinkles. Scattered clouds.8 mph88%29.45 "Hg4 mi
5:00 pm61 °FSprinkles. Scattered clouds.10 mph68%29.45 "Hg4 mi
4:30 pm61 °FSprinkles. Passing clouds.13 mph68%29.45 "Hg4 mi
4:00 pm66 °FClear.8 mph49%29.45 "Hg4 mi
3:30 pm68 °FClear.6 mph46%29.45 "Hg4 mi
3:00 pm68 °FClear.6 mph46%29.45 "Hg4 mi
2:30 pm68 °FPassing clouds.6 mph46%29.45 "Hg4 mi
2:00 pm66 °FSprinkles. Passing clouds.8 mph52%29.45 "Hg4 mi
1:30 pm68 °FClear.6 mph43%29.45 "Hg4 mi
1:00 pm68 °FPassing clouds.6 mph46%29.45 "Hg4 mi
12:30 pm66 °FSprinkles. Passing clouds.8 mph49%29.45 "Hg4 mi
12:00 pm66 °FClear.8 mph46%29.47 "Hg4 mi
11:30 am64 °FClear.8 mph52%29.50 "Hg4 mi
11:00 am63 °FClear.8 mph56%29.50 "Hg4 mi
10:30 am61 °FClear.8 mph59%29.50 "Hg4 mi
10:00 am61 °FPassing clouds.8 mph55%29.53 "Hg4 mi
9:30 am61 °FClear.6 mph52%29.53 "Hg4 mi
9:00 am61 °FClear.8 mph52%29.53 "Hg4 mi
8:30 am63 °FClear.6 mph52%29.53 "Hg4 mi
8:00 am63 °FPassing clouds.3 mph52%29.53 "Hg4 mi
7:30 am63 °FClear.8 mph49%29.56 "Hg4 mi
7:00 am63 °FClear.6 mph52%29.56 "Hg4 mi
Weather by CustomWeather, © 2017

See weather overviewHow to use our weather pages